UKDRUKLL

Guest
Details From UKDR - Lozuvatka Intl
To UKLL - Lviv Intl
Flight Number -
Tags Generated
Created
Modified
Stats Distance 381 nm / 705 km
Max Altitude 0 ft / 0 m
Waypoints 3
Social Downloads 0
Likes 0
Share VATSIM

Download

Looking for another format? Having issues loading an existing format? Contact us
Advertisement - Login to hide

Notes

Generated

Route

UKDR LIV UKLL

ID Type Via Altitude Latitude Longitude Leg Dist Tot Dist Heading (true) Name
O UKDR APT - 0 ft / 0 m 48.05444˚ 33.21167˚ - 0 nm - -
LIV VOR - 0 ft / 0 m 49.81160˚ 23.95097˚ 380 nm 380 nm 290° / 283° LVIV VOR-DME
O UKLL APT - 0 ft / 0 m 49.82083˚ 23.94389˚ 0 nm 380 nm 334° / 334° -

Altitude Profile

Advertisement - Login to hide

Weather


0- 5 10 15 20 25 30 35+ Temperature / ° C

Clouds and Precipitation
Forecast for 2018-05-23 18:00 UTC. Updated 4 hours ago

Ground ~20,000 ft ~40,000 ft Winds

UKDR

Details ICAO UKDR (KWG)
Name LOZUVATKA INTL
Region Ukraine
Timezone Europe/Kiev (UTC+3.0)
Stats Elevation 408 ft / 124 m (AMSL)
Location 48.043333° 33.210000°
Runways 1
Magnetic Variation 7.504° E

METAR

UKDR 232100Z 03002MPS 360V100 CAVOK 19/15 Q1018 R36/19//60 NOSIG

Decode

TAF

TAF AMD UKDR 231140Z 2312/2412 01005MPS 9999 SCT030CB TX27/2313Z TN15/2403Z TEMPO 2312/2318 VRB10G15MPS 2100 -TSRA SQ BKN030CB

Decode

Departure Runways

ID Width Length Bearing (true) Bearing (mag) Surface Threshold Offset Overrun Length
18 138 ft / 42 m 8,150 ft / 2,484 m 185.73° 178.23° Concrete 0 ft / 0 m 0 ft / 0 m
36 138 ft / 42 m 8,150 ft / 2,484 m 5.73° 358.23° Concrete 0 ft / 0 m 0 ft / 0 m

UKLL

Details ICAO UKLL (LWO)
Name LVIV INTL
Region Ukraine
Timezone Europe/Kiev (UTC+3.0)
Stats Elevation 1,071 ft / 326 m (AMSL)
Location 49.812638° 23.956111°
Runways 1
Magnetic Variation 6.152° E

METAR

UKLL 232100Z 04003MPS CAVOK 17/13 Q1021 R13/290055 NOSIG

Decode

TAF

Not found

Destination Runways

ID Width Length Bearing (true) Bearing (mag) Surface Threshold Offset Overrun Length
13 148 ft / 45 m 8,300 ft / 2,530 m 136.09° 129.94° Asphalt 0 ft / 0 m 160 ft / 49 m
31 148 ft / 45 m 8,300 ft / 2,530 m 316.11° 309.96° Asphalt 0 ft / 0 m 145 ft / 44 m

Approach Navaids

Runway Type Ident Frequency Range Bearing (true) Bearing (mag) Slope Elevation
13 Localiser ILO 109.50 MHz 18 nm / 33 km 135.94° 129.79° - 1,071 ft / 326 m (AMSL)
13 Glidescope ILO 109.50 MHz 10 nm / 19 km 136.10° 129.94° 3.00° 1,071 ft / 326 m (AMSL)
31 Localiser ILV 110.30 MHz 18 nm / 33 km 315.64° 309.49° - 1,071 ft / 326 m (AMSL)
31 Glidescope ILV 110.30 MHz 10 nm / 19 km 316.10° 309.94° 3.00° 1,071 ft / 326 m (AMSL)